Regional Weather Roundup
Issued by NWS

Home | Current Version | Previous Version | Graphics & Text | Print | Product List | Glossary On
Versions: 1 2 3 4 5 6 7 8 9 10 11 12 13 14 15 16 17 18 19 20 21 22 23 24 25 26 27 28 29 30 31 32 33 34 35 36 37 38 39 40 41 42 43 44 45 46 47 48 49 50
000
ASUS43 KMKX 090821
RWRWI

WISCONSIN REGIONAL WEATHER ROUNDUP
NATIONAL WEATHER SERVICE MILWAUKEE/SULLIVAN WI
200 AM CST FRI DEC 09 2016

NOTE: "FAIR" INDICATES FEW OR NO CLOUDS BELOW 12,000 FEET WITH NO
SIGNIFICANT WEATHER AND/OR OBSTRUCTIONS TO VISIBILITY.

WIZ001-002-006>008-014>016-023>028-090900-
NORTHWEST WISCONSIN

CITY           SKY/WX    TMP DP  RH WIND       PRES   REMARKS
SUPERIOR ARPT  CLEAR     13   7  77 NW8       30.50R WCI   1
ASHLAND        PTCLDY    13   8  81 W6        30.45R WCI   4
HAYWARD        CLOUDY    15   7  70 VRB3      30.44R
SIREN          CLEAR     11   7  84 W3        30.49S
CUMBERLAND     CLEAR     12   7  79 NW6       30.45R WCI   3
RICE LAKE      CLEAR     14   9  82 W6        30.48R WCI   5
CHETEK         CLEAR     14  10  82 NW3       30.47R
LADYSMITH      CLOUDY    17  11  78 NW13      30.43R WCI   4
EAU CLAIRE     PTCLDY    15  10  80 NW7       30.47R WCI   5
MENOMONIE      PTCLDY    17  13  84 W6        30.49R WCI   8
NEW RICHMOND   CLEAR     13   9  85 W7        30.51R WCI   3
OSCEOLA        CLEAR     14  11  87 W7        30.54R WCI   4
$$

WIZ003>005-009-010-017-018-090900-
NORTH CENTRAL WISCONSIN

CITY           SKY/WX    TMP DP  RH WIND       PRES   REMARKS
MANITOWISH WTR LGT SNOW  15  15  98 NW7       30.33R VSB 3/4 WCI   6
ARBOR VITAE    LGT SNOW  18  13  82 NW8       30.33R WCI   8
WOODRUFF       LGT SNOW  18  13  82 NW8       30.33R WCI   8
RHINELANDER    LGT SNOW  18  12  77 NW8       30.33R WCI   8
EAGLE RIVER    CLOUDY    16  10  77 NW8       30.32R WCI   6
LAND O LAKES   FLURRIES  17  12  81 NW3       30.32R
PHILLIPS       CLEAR     13   8  80 NW5       30.36R WCI   6
TOMAHAWK       CLOUDY    17  10  76 NW8       30.36R WCI   6
MEDFORD        FLURRIES  17  13  82 NW7       30.37R WCI   8
MERRILL        MOCLDY    19  13  77 NW7       30.37R WCI   9
$$

WIZ029-030-035-036-043>047-090900-
CENTRAL WISCONSIN

CITY           SKY/WX    TMP DP  RH WIND       PRES   REMARKS
WAUSAU         FLURRIES  20  14  77 W10       30.36R WCI   9
MOSINEE        CLOUDY    19  16  86 W9        30.38R WCI   9
MARSHFIELD     CLOUDY    18  11  74 NW10      30.38R WCI   6
STEVENS POINT  CLOUDY    17  11  75 W7        30.40R WCI   8
WAUPACA        CLEAR     22  15  72 W7        30.40R WCI  14
WAUTOMA        PTCLDY    19  13  77 W9        30.42R WCI   8
WISC RAPIDS    PTCLDY    18  12  77 NW8       30.42R WCI   8
CAMP DOUGLAS   FLURRIES  21  16  79 NW12      30.44R WCI   9
$$

WIZ011>013-019>022-031-037>040-048>050-090900-
NORTHEAST WISCONSIN

CITY           SKY/WX    TMP DP  RH WIND       PRES   REMARKS
ANTIGO         CLOUDY    17  13  84 NW9       30.33R WCI   5
SHAWANO        PTCLDY    21  15  76 W6        30.38R WCI  14
OCONTO         CLEAR     18  13  82 W5        30.36R WCI  11
STURGEON BAY   CLEAR     23  14  68 NW14G21   30.34R WCI  11
GREEN BAY      CLEAR     22  16  78 W10       30.37R WCI  11
MANITOWOC      CLEAR     22  16  78 W10       30.37R WCI  11
APPLETON       CLEAR     19  12  73 W8        30.37R WCI   9
CLINTONVILLE   CLEAR     21  14  73 W9        30.38R WCI  11
OSHKOSH        CLEAR     20  13  74 W8        30.38R WCI  10
$$

WIZ032>034-041-042-053>061-090900-
SOUTHWEST WISCONSIN

CITY           SKY/WX    TMP DP  RH WIND       PRES   REMARKS
LA CROSSE      CLOUDY    24  15  68 NW14      30.49R WCI  12
SPARTA         FLURRIES  22  17  79 NW8       30.47R WCI  12
VIROQUA        CLOUDY    19  17  88 W7        30.44R WCI  10
BOSCOBEL       CLOUDY    22  16  78 W7        30.49R WCI  13
PRAIRIE DU CHI CLOUDY    20  13  73 NW7       30.51R WCI  11
PLATTEVILLE    CLOUDY    20  17  88 W9        30.47R WCI   9
$$

WIZ056-057-062-063-064-067-068-090900-
SOUTH CENTRAL WISCONSIN

CITY           SKY/WX    TMP DP  RH WIND       PRES   REMARKS
REEDSBURG      CLOUDY    21  17  82 W8G16     30.44R WCI  12
BARABOO/DELLS  FLURRIES  22  17  80 W6        30.42R WCI  14
LONE ROCK      CLOUDY    23  15  71 W9        30.47R WCI  13
MINERAL POINT  FLURRIES  21  19  93 W7        30.44R WCI  13
MADISON        CLOUDY    22  17  81 NW7       30.43R WCI  13
MIDDLETON      CLOUDY    24  19  80 NW8       30.43S WCI  15
WATERTOWN      CLEAR     18  17  95 W5        30.41R WCI  11
MONROE         CLOUDY    21  18  86 W10G16    30.42R WCI  10
JANESVILLE     CLOUDY    23  19  86 W6        30.43R WCI  16
$$

WIZ051-052-058>065-066-070>072-090900-
SOUTHEAST WISCONSIN

CITY           SKY/WX    TMP DP  RH WIND       PRES   REMARKS
MILWAUKEE      PTCLDY    24  15  68 W10       30.40R WCI  14
WAUKESHA       CLEAR     19  16  86 W12       30.40R WCI   7
MILWAUKEE/TIMM CLEAR     21  14  73 W10       30.41R WCI  10
RACINE         MOCLDY    22  15  75 W7        30.42R WCI  13
BURLINGTON     MOCLDY    26  23  88 W6        30.41R WCI  19
KENOSHA        CLEAR     21  16  81 NW10      30.40R WCI  10
FOND DU LAC    CLEAR     21  13  71 NW12      30.39R WCI   9
SHEBOYGAN      CLEAR     22  14  71 W7        30.37R WCI  13
WEST BEND      CLEAR     21  18  86 W9        30.38R WCI  11
JUNEAU         CLEAR     19  14  84 W3        30.41R
$$

LSZ147-162-090900-
LAKE SUPERIOR

STATION/POSITION TIME  TEMP    WIND        PRES    WAVE
                       AIR SEA DIR/SP/G            HT/PER
                 (UTC) (F)     (DEG/KT/KT) (MB)    (FT/S)
DEVILS ISLAND    0800   20     300/ 15/ 18 1031.7R
PORT WING        0740   21     310/ 12/ 16 1031.2S
SAXON HARBOR     0740   20     260/  7/ 12 1029.8R
$$

LMZ867-665-643>646-090900-
LAKE MICHIGAN

STATION/POSITION TIME  TEMP    WIND        PRES    WAVE
                       AIR SEA DIR/SP/G            HT/PER
                 (UTC) (F)     (DEG/KT/KT) (MB)    (FT/S)
CHAMBERS ISLAND  0740   24     290/  8/ 17 1026.4R
NORTHPORT PIER   0743   26     300/ 17     1026.1R
SISTER BAY       0750   25     320/ 25/ 29   N/A
ALGOMA LAKESHORE 0721          330/ 11/ 13   N/A
KEWAUNEE LAKESHO 0754   24     290/  6/  8 1027.1R
SHEBOYGAN LAKESH 0800   24     300/ 12/ 15 1029.5R
PORT WASHINGTON  0640   24     300/  8/ 12 1029.1R
MILWAUKEE LAKESH 0800   24     290/  9/ 11   N/A
KENOSHA   LAKESH 0800   22     280/ 10/ 13 1029.5
$$

TC  - TEMPERATURE IN CELSIUS
VSB - VISIBILITY IN STATUTE MILES
WCI - WIND CHILL INDEX
HX  - HEAT INDEX




USA.gov is the U.S. government's official web portal to all federal, state and local government web resources and services.